Wind_Speed
18 17 17 18 18 19 19 20 19 20 21 21 21 21 20 21 21 21 21 20 20 19 19 20 20 20 20 21 21 21 20 20 20 20 19 19 19 19
18 18 19 19 20 21 21 20 20 20 19 20 21 22 22 22 22 22 22 22 21 21 21 21 21 22 22 23 23 22 21 21 21 21 21 20 20 20
19 20 20 20 20 20 21 21 22 22 21 21 21 21 22 22 22 22 22 22 22 22 22 22 22 22 23 23 23 23 22 21 21 21 21 21 21 22
21 21 21 22 22 22 22 22 23 22 22 21 21 21 22 22 22 22 22 22 22 22 22 22 22 23 24 23 23 23 23 22 22 22 22 22 23 23
22 22 22 22 23 23 23 23 23 23 23 23 23 23 24 24 24 24 24 23 24 24 23 23 23 23 23 22 22 22 22 22 22 23 23 24 24 24
23 24 24 24 25 24 24 23 23 23 23 24 24 24 25 25 25 25 25 25 25 25 25 25 24 23 23 23 23 23 23 24 24 24 25 25 25 26
24 25 25 26 26 25 25 24 24 24 24 24 24 24 25 25 25 26 26 26 26 26 27 26 25 25 25 25 25 25 25 26 26 26 26 26 26 26
25 25 26 26 26 26 26 26 26 25 25 25 25 26 26 26 26 26 26 26 26 27 27 26 27 27 27 26 26 26 26 27 27 28 28 27 27 26
27 27 27 27 27 27 27 27 26 26 26 26 26 26 27 27 26 26 27 28 28 28 28 27 27 27 28 27 27 28 28 28 28 29 29 28 27 27
28 27 27 28 28 28 28 27 27 27 27 27 27 26 27 28 27 28 28 29 29 28 28 28 28 28 29 29 28 29 29 30 30 31 30 28 28 27
28 28 29 29 29 29 29 28 28 28 28 28 28 27 28 28 28 28 28 29 29 29 29 29 29 29 29 30 30 30 31 31 32 31 31 30 29 28
30 30 30 29 29 29 29 28 28 28 29 29 29 29 29 29 29 29 30 29 29 29 29 29 30 30 31 31 32 32 33 33 33 32 32 31 30 29
30 30 30 30 30 30 30 29 29 30 30 30 29 29 30 31 31 30 30 30 30 29 30 30 30 31 32 32 33 33 34 34 33 33 32 31 29 28
30 30 30 30 30 30 29 30 30 30 30 30 30 30 31 31 31 31 31 31 31 31 31 31 31 32 32 33 33 33 33 33 33 32 32 30 29 29
29 29 30 30 30 29 29 29 29 29 29 30 31 30 30 30 31 31 32 32 32 32 32 32 32 33 33 33 32 31 32 32 32 31 31 30 30 29
29 29 30 30 30 30 29 29 30 30 30 30 30 31 31 32 32 32 32 33 33 33 33 33 32 32 33 32 32 31 30 30 30 30 30 30 29 28
29 29 29 30 30 30 30 31 30 30 30 30 30 30 31 31 32 32 31 31 32 31 31 31 32 32 32 31 30 30 30 29 29 29 29 29 28 28
29 29 29 29 30 31 31 31 32 32 32 32 32 32 32 31 31 32 32 32 32 32 31 31 31 31 31 31 31 30 30 30 30 30 30 29 28 28
29 29 29 30 30 30 31 32 33 33 33 33 32 32 31 31 32 32 32 32 32 33 33 32 32 32 32 31 31 31 31 31 31 30 30 29 29 29
30 30 29 29 29 30 30 31 32 32 32 32 31 31 31 31 32 32 32 33 33 33 33 32 32 32 32 31 31 31 31 31 31 31 30 30 30 29
29 29 29 30 30 30 30 30 31 31 31 30 30 30 30 30 31 31 32 32 33 32 32 31 31 32 31 32 31 31 32 32 31 30 30 30 30 30
29 29 29 29 30 30 30 30 30 29 29 30 30 29 28 29 30 31 31 32 32 31 30 29 30 30 31 31 31 31 31 31 30 30 30 31 30 29
29 28 28 28 29 29 30 30 28 28 28 28 28 29 29 29 30 31 31 31 30 30 29 29 29 29 28 29 29 29 29 29 29 29 29 29 29 29
Wind_Direction
284 285 286 286 283 284 282 279 277 273 270 266 266 265 264 263 263 264 265 265 266 266 266 267 267 268 270 271 273 275 279 277 273 270 271 272 271 270
284 284 284 284 282 283 283 281 278 277 273 269 268 267 266 263 264 264 265 265 266 266 267 269 269 268 268 269 272 275 277 275 276 273 272 272 273 273
283 284 284 284 283 282 282 281 280 277 274 270 268 267 266 265 265 265 264 264 265 267 268 269 270 268 269 270 273 275 275 274 275 275 273 272 274 275
285 285 285 285 283 283 284 281 279 277 274 271 268 265 264 263 263 263 264 265 266 268 268 269 269 268 270 270 272 274 275 275 276 276 276 274 275 275
283 284 285 286 286 285 286 282 280 280 276 271 267 264 262 262 262 264 266 266 267 269 268 268 268 269 269 270 272 273 273 275 276 277 276 277 276 276
284 284 283 284 286 284 284 283 281 280 276 272 271 267 264 263 263 263 263 264 265 267 268 268 268 268 269 270 271 272 273 274 275 278 277 277 277 277
284 284 283 284 285 284 284 282 281 280 278 275 273 271 268 265 265 263 262 263 265 266 267 267 268 268 268 269 270 272 272 274 275 277 278 277 277 277
283 283 282 283 285 284 284 282 280 278 276 274 272 271 270 268 267 265 263 263 264 266 266 267 268 268 269 269 269 271 273 274 275 277 279 278 276 274
283 282 281 282 284 284 284 281 280 277 275 275 274 274 272 268 267 268 267 265 265 267 267 267 268 268 269 269 269 271 273 274 276 278 279 276 275 271
282 282 282 282 283 284 282 280 278 277 276 276 275 274 272 268 266 267 269 269 267 267 267 268 268 268 269 269 269 270 272 273 275 276 276 275 274 271
284 282 282 281 281 281 281 279 276 276 277 276 274 273 273 271 268 269 270 271 271 269 268 268 268 268 268 269 269 271 271 272 273 274 274 273 273 272
285 284 283 282 280 280 280 280 277 275 275 275 274 273 272 269 267 268 269 271 272 271 268 268 269 269 268 269 269 270 271 271 272 271 272 271 271 271
286 284 283 282 281 280 279 279 278 276 273 271 271 271 271 269 268 268 268 268 269 271 271 270 270 270 271 271 271 271 271 271 271 272 272 271 270 269
287 285 284 283 282 281 280 278 278 278 276 273 271 270 270 270 268 268 268 268 269 269 271 271 271 272 272 273 274 272 271 270 270 270 270 270 269 266
288 286 285 284 283 282 281 280 279 279 278 276 274 272 270 270 268 268 268 268 268 269 270 270 271 272 274 275 274 272 271 270 270 270 270 269 268 267
288 287 285 284 282 282 281 280 280 279 279 279 276 273 271 270 270 269 269 268 268 269 271 271 269 271 274 274 272 272 271 270 270 270 271 270 268 266
289 287 285 283 282 282 281 280 279 278 278 278 277 276 273 273 272 270 269 268 269 269 270 271 271 272 272 271 271 271 270 268 269 270 270 269 267 264
290 288 287 286 284 283 282 281 280 279 278 277 276 275 273 272 271 270 270 270 270 270 272 273 273 273 271 269 270 271 270 270 268 268 268 268 267 264
292 290 288 287 286 285 284 282 281 279 278 277 275 275 273 271 269 268 268 270 270 271 272 272 272 272 271 270 270 271 271 270 268 266 266 266 264 265
292 291 290 288 287 287 286 284 281 278 277 277 276 275 273 271 269 267 267 269 270 270 271 271 269 269 269 270 269 269 270 270 269 267 265 263 263 262
292 291 289 288 287 287 287 284 281 279 278 278 279 277 274 272 271 270 269 270 270 270 270 268 267 267 266 267 268 267 268 270 269 265 263 263 262 260
292 292 290 288 288 287 286 284 281 280 279 278 278 277 274 273 273 271 269 269 269 270 269 268 267 267 266 267 267 267 267 268 267 264 262 262 262 258
293 292 291 290 288 287 286 284 282 280 279 278 277 276 275 273 273 272 270 269 269 269 268 267 267 267 268 267 268 268 267 267 266 263 261 261 260 257
Height
5839 5838 5837 5836 5835 5835 5834 5833 5832 5831 5831 5830 5830 5830 5830 5831 5831 5832 5832 5832 5833 5833 5833 5834 5834 5834 5834 5833 5833 5833 5832 5832 5832 5832 5832 5832 5832 5832
5835 5834 5833 5832 5831 5830 5828 5827 5826 5826 5825 5825 5824 5824 5824 5825 5825 5826 5826 5826 5827 5827 5827 5828 5828 5828 5828 5828 5828 5827 5827 5827 5827 5826 5827 5827 5827 5827
5830 5829 5828 5827 5825 5824 5823 5822 5821 5820 5819 5819 5818 5818 5818 5819 5819 5820 5820 5820 5821 5821 5821 5822 5822 5822 5822 5822 5822 5822 5821 5821 5821 5821 5821 5821 5821 5821
5825 5824 5823 5821 5820 5819 5817 5816 5814 5813 5813 5812 5812 5812 5812 5812 5813 5813 5813 5814 5814 5815 5815 5815 5815 5815 5815 5815 5815 5815 5815 5815 5815 5815 5815 5815 5815 5814
5820 5819 5817 5816 5814 5812 5811 5809 5808 5807 5806 5805 5805 5805 5805 5805 5806 5806 5807 5807 5807 5808 5808 5808 5808 5808 5809 5809 5809 5809 5809 5809 5809 5809 5809 5808 5808 5807
5814 5812 5811 5810 5808 5806 5804 5803 5801 5800 5799 5798 5798 5798 5798 5798 5799 5799 5799 5800 5800 5800 5800 5801 5801 5801 5802 5802 5802 5802 5802 5802 5802 5802 5802 5801 5800 5800
5807 5806 5805 5803 5801 5799 5798 5796 5795 5793 5792 5791 5791 5791 5791 5791 5791 5791 5792 5792 5792 5793 5793 5794 5794 5794 5794 5795 5795 5795 5795 5795 5795 5795 5794 5793 5793 5792
5801 5799 5798 5796 5795 5793 5791 5790 5788 5787 5786 5785 5784 5784 5784 5784 5784 5784 5784 5785 5785 5786 5786 5786 5786 5786 5786 5787 5787 5788 5788 5788 5787 5787 5786 5786 5785 5784
5794 5792 5791 5789 5787 5786 5784 5782 5781 5780 5779 5778 5777 5777 5776 5777 5777 5777 5777 5777 5778 5778 5778 5778 5778 5778 5778 5779 5779 5780 5780 5780 5780 5779 5778 5778 5777 5777
5786 5785 5783 5781 5780 5778 5776 5775 5773 5773 5772 5771 5770 5770 5769 5769 5769 5769 5769 5769 5770 5770 5770 5770 5770 5770 5770 5770 5771 5771 5771 5771 5771 5770 5770 5770 5769 5769
5778 5777 5775 5773 5772 5770 5768 5767 5766 5765 5764 5763 5763 5762 5762 5761 5761 5761 5761 5761 5761 5761 5761 5761 5761 5761 5761 5762 5762 5762 5762 5762 5762 5761 5761 5761 5761 5760
5770 5768 5766 5764 5763 5761 5760 5759 5757 5756 5755 5755 5754 5754 5753 5753 5753 5753 5753 5752 5752 5752 5752 5752 5752 5752 5752 5753 5753 5752 5752 5752 5752 5752 5752 5752 5752 5752
5760 5758 5757 5756 5754 5753 5751 5750 5749 5747 5746 5746 5745 5745 5744 5744 5744 5744 5744 5744 5743 5744 5744 5743 5743 5742 5743 5743 5742 5742 5742 5742 5742 5742 5743 5743 5743 5743
5751 5749 5748 5747 5745 5743 5742 5741 5740 5738 5737 5736 5736 5735 5735 5735 5735 5735 5735 5734 5734 5734 5734 5734 5734 5733 5733 5732 5732 5732 5732 5732 5733 5733 5733 5734 5734 5734
5743 5741 5739 5737 5736 5734 5733 5732 5730 5729 5728 5727 5726 5726 5725 5725 5725 5725 5725 5725 5725 5724 5724 5724 5724 5723 5723 5723 5723 5723 5723 5722 5723 5724 5724 5724 5725 5725
5734 5732 5730 5728 5727 5725 5724 5722 5721 5720 5719 5718 5717 5716 5715 5715 5715 5715 5715 5714 5714 5715 5715 5714 5714 5714 5713 5714 5713 5713 5713 5713 5714 5715 5715 5715 5716 5716
5724 5722 5720 5718 5717 5715 5714 5713 5711 5710 5709 5708 5707 5706 5705 5705 5705 5705 5704 5704 5704 5705 5705 5705 5704 5704 5704 5703 5704 5704 5704 5704 5705 5705 5705 5706 5706 5707
5714 5713 5711 5709 5707 5705 5704 5702 5701 5700 5698 5697 5696 5696 5695 5695 5695 5695 5695 5694 5694 5695 5695 5695 5694 5694 5694 5694 5695 5694 5694 5695 5695 5695 5696 5696 5697 5697
5705 5703 5701 5699 5697 5695 5693 5692 5690 5689 5687 5686 5686 5685 5684 5684 5684 5685 5685 5684 5684 5684 5684 5684 5684 5684 5684 5684 5685 5685 5685 5685 5685 5685 5686 5687 5687 5688
5696 5694 5691 5689 5687 5685 5683 5681 5680 5678 5677 5676 5675 5675 5674 5674 5674 5674 5674 5674 5674 5674 5674 5674 5674 5674 5674 5675 5675 5675 5675 5675 5675 5676 5676 5676 5678 5679
5686 5684 5682 5679 5677 5675 5673 5671 5669 5668 5667 5666 5665 5664 5664 5664 5664 5664 5664 5664 5664 5664 5664 5664 5664 5664 5664 5665 5665 5665 5665 5665 5665 5666 5667 5667 5668 5669
5677 5674 5672 5670 5668 5666 5664 5662 5660 5659 5658 5657 5656 5655 5655 5655 5655 5655 5655 5654 5654 5655 5654 5655 5654 5654 5654 5654 5655 5655 5655 5655 5655 5656 5657 5658 5658 5660
5668 5665 5662 5660 5658 5656 5654 5652 5651 5650 5649 5648 5647 5646 5646 5645 5645 5645 5645 5645 5644 5644 5645 5645 5644 5644 5644 5645 5645 5645 5645 5645 5646 5646 5647 5648 5649 5650